Location: Unspecified
(0.0000°N, 0.0000°E)
Time: 11:18:51
(UTC+00:00)

KAITUO 1B - Pass Details

Date: 23 July 2019
Orbit: 497 x 515 km, 97.5° (Epoch: 08 December)

Event Time Altitude Azimuth Distance (km) Brightness Sun altitude
Rises 05:21:18 0° 33° (NNE) 2,601 ? -10.6°
Reaches altitude 10° 05:23:41 10° 49° (NE) 1,723 ? -10.0°
Maximum altitude 05:26:39 23° 102° (ESE) 1,137 ? -9.4°
Drops below altitude 10° 05:29:37 10° 154° (SSE) 1,738 ? -8.7°
Sets 05:32:02 0° 169° (S) 2,630 ? -8.1°
